Tracking 19246 objects as of 20-Aug-2018
HD Live streaming from Space Station
objects crossing your sky now

FENGYUN 1C DEB

Track FENGYUN 1C DEB now!
10-day predictions


NORAD ID: 29973
Int'l Code: 1999-025KX
Perigee: 847.3 km
Apogee: 944.6 km
Inclination: 99.0 °
Period: 102.8 minutes
Semi major axis: 7266 km
RCS: 0.05 m2 (small)
Launch date: May 10, 1999
Source: People's Republic of China (PRC)
Launch site: Taiyaun Space Center, China (TSC)

Note: This is SATELLITE DEBRIS
aabbcc
Your satellite tracking list
Your tracking list is empty




NASA's NSSDC Master Catalog

Two Line Element Set (TLE):
1 29973U 99025KX  18231.53888617 +.00000455 +00000-0 +32424-3 0  9998
2 29973 098.9796 260.3606 0066985 028.6188 135.2114 14.01435969592500
Source of the keplerian elements: AFSPC